When you browse on this site, cookies collect data to enhance your experience and personalize the content and advertising you see.
Visit our Privacy Policy to learn more. By continuing to use the site, you agree to this use of cookies and data.

Previsão horária em Yeghegnadzor

Hoje, 10 Agosto, Segunda-feira

Tempo Temperatura Precipitação Vento Pressão Humidade
00:00 +21°C° 0 mm 2 m/s 650 mmHg 55%
01:00 +20°C° 0 mm 2 m/s 650 mmHg 54%
02:00 +20°C° 0 mm 2 m/s 650 mmHg 52%
03:00 +20°C° 0 mm 2 m/s 650 mmHg 50%
04:00 +20°C° 0 mm 2 m/s 650 mmHg 50%
05:00 +20°C° 0 mm 2 m/s 650 mmHg 50%
06:00 +20°C° 0 mm 2 m/s 650 mmHg 50%
07:00 +24°C° 0 mm 1 m/s 651 mmHg 43%
08:00 +26°C° 0 mm 1 m/s 651 mmHg 37%
09:00 +28°C° 0 mm 1 m/s 652 mmHg 31%
10:00 +29°C° 0 mm 1 m/s 652 mmHg 29%
11:00 +31°C° 0 mm 1 m/s 652 mmHg 27%
12:00 +32°C° 0 mm 1 m/s 653 mmHg 25%
13:00 +32°C° 0 mm 2 m/s 652 mmHg 24%
14:00 +34°C° 0 mm 2 m/s 652 mmHg 23%
15:00 +34°C° 0 mm 3 m/s 651 mmHg 22%
16:00 +33°C° 0 mm 3 m/s 651 mmHg 27%
17:00 +31°C° 0 mm 3 m/s 651 mmHg 31%
18:00 +30°C° 0 mm 3 m/s 651 mmHg 36%
19:00 +28°C° 0 mm 3 m/s 651 mmHg 43%
20:00 +26°C° 0 mm 3 m/s 651 mmHg 50%
21:00 +25°C° 0 mm 3 m/s 650 mmHg 57%
22:00 +24°C° 0 mm 3 m/s 650 mmHg 59%
23:00 +23°C° 0 mm 2 m/s 651 mmHg 62%

Amanhã, 11 Agosto, Terça-feira

Tempo Temperatura Precipitação Vento Pressão Humidade
00:00 +23°C° 0 mm 2 m/s 651 mmHg 65%
01:00 +21°C° 0 mm 2 m/s 651 mmHg 65%
02:00 +21°C° 0 mm 2 m/s 650 mmHg 66%
03:00 +20°C° 0 mm 2 m/s 650 mmHg 67%
04:00 +21°C° 0 mm 2 m/s 650 mmHg 67%
05:00 +21°C° 0 mm 2 m/s 651 mmHg 66%
06:00 +22°C° 0 mm 1 m/s 651 mmHg 66%
07:00 +24°C° 0 mm 1 m/s 651 mmHg 59%
08:00 +26°C° 0 mm 1 m/s 652 mmHg 52%
09:00 +27°C° 0 mm 1 m/s 652 mmHg 45%
10:00 +28°C° 0 mm 2 m/s 652 mmHg 42%
11:00 +30°C° 0 mm 2 m/s 652 mmHg 39%
12:00 +31°C° 0 mm 3 m/s 652 mmHg 37%
13:00 +31°C° 0 mm 3 m/s 652 mmHg 35%
14:00 +33°C° 0 mm 3 m/s 651 mmHg 33%
15:00 +33°C° 0 mm 3 m/s 651 mmHg 31%
16:00 +31°C° 0 mm 3 m/s 651 mmHg 34%
17:00 +31°C° 0 mm 2 m/s 651 mmHg 37%
18:00 +30°C° 0 mm 2 m/s 651 mmHg 41%
19:00 +28°C° 0 mm 2 m/s 651 mmHg 49%
20:00 +26°C° 0 mm 3 m/s 651 mmHg 57%
21:00 +24°C° 0 mm 3 m/s 650 mmHg 65%
22:00 +22°C° 0 mm 3 m/s 651 mmHg 67%
23:00 +23°C° 0 mm 2 m/s 651 mmHg 68%

Depois de amanhã, 12 Agosto, Quarta-feira

Tempo Temperatura Precipitação Vento Pressão Humidade
00:00 +21°C° 0 mm 2 m/s 651 mmHg 70%
01:00 +21°C° 0 mm 2 m/s 651 mmHg 71%
02:00 +20°C° 0 mm 2 m/s 651 mmHg 73%
03:00 +21°C° 0 mm 1 m/s 650 mmHg 74%
04:00 +21°C° 0 mm 1 m/s 651 mmHg 73%
05:00 +21°C° 0 mm 1 m/s 651 mmHg 73%
06:00 +21°C° 0 mm 2 m/s 651 mmHg 72%
07:00 +23°C° 0 mm 2 m/s 652 mmHg 67%
08:00 +24°C° 0 mm 2 m/s 652 mmHg 61%
09:00 +26°C° 0 mm 2 m/s 652 mmHg 56%
10:00 +27°C° 0.1 mm 2 m/s 653 mmHg 52%
11:00 +28°C° 0.1 mm 2 m/s 653 mmHg 49%
12:00 +29°C° 0.1 mm 2 m/s 653 mmHg 45%
13:00 +30°C° 0.1 mm 2 m/s 652 mmHg 43%
14:00 +30°C° 0.1 mm 2 m/s 652 mmHg 42%
15:00 +30°C° 0.1 mm 2 m/s 652 mmHg 40%
16:00 +30°C° 0.1 mm 2 m/s 652 mmHg 42%
17:00 +29°C° 0.1 mm 2 m/s 652 mmHg 44%
18:00 +29°C° 0.1 mm 2 m/s 652 mmHg 45%
19:00 +27°C° 0 mm 2 m/s 652 mmHg 51%
20:00 +26°C° 0 mm 2 m/s 652 mmHg 57%
21:00 +24°C° 0 mm 2 m/s 652 mmHg 63%
22:00 +23°C° 0 mm 2 m/s 652 mmHg 64%
23:00 +23°C° 0 mm 2 m/s 652 mmHg 64%

13 Agosto, Quinta-feira

Tempo Temperatura Precipitação Vento Pressão Humidade
00:00 +21°C° 0 mm 2 m/s 652 mmHg 65%
01:00 +21°C° 0 mm 2 m/s 651 mmHg 65%
02:00 +21°C° 0 mm 2 m/s 651 mmHg 65%
03:00 +20°C° 0 mm 2 m/s 651 mmHg 65%
04:00 +21°C° 0 mm 1 m/s 651 mmHg 65%
05:00 +21°C° 0 mm 1 m/s 651 mmHg 65%
06:00 +21°C° 0 mm 1 m/s 651 mmHg 65%
07:00 +23°C° 0 mm 1 m/s 652 mmHg 59%
08:00 +25°C° 0 mm 1 m/s 652 mmHg 53%
09:00 +26°C° 0 mm 1 m/s 652 mmHg 47%
10:00 +28°C° 0.1 mm 1 m/s 652 mmHg 44%
11:00 +29°C° 0.1 mm 2 m/s 652 mmHg 40%
12:00 +30°C° 0.1 mm 2 m/s 652 mmHg 37%
13:00 +30°C° 0.1 mm 2 m/s 652 mmHg 37%
14:00 +31°C° 0.1 mm 2 m/s 651 mmHg 36%
15:00 +31°C° 0.1 mm 2 m/s 651 mmHg 35%
16:00 +30°C° 0.2 mm 2 m/s 651 mmHg 37%
17:00 +30°C° 0.2 mm 2 m/s 651 mmHg 39%
18:00 +29°C° 0.2 mm 3 m/s 650 mmHg 41%
19:00 +27°C° 0.2 mm 3 m/s 651 mmHg 48%
20:00 +26°C° 0.2 mm 3 m/s 651 mmHg 54%
21:00 +24°C° 0.2 mm 3 m/s 651 mmHg 61%
22:00 +24°C° 0.2 mm 2 m/s 651 mmHg 62%
23:00 +23°C° 0.2 mm 2 m/s 651 mmHg 62%

14 Agosto, Sexta-feira

Tempo Temperatura Precipitação Vento Pressão Humidade
00:00 +23°C° 0.2 mm 2 m/s 651 mmHg 63%
01:00 +23°C° 0 mm 2 m/s 650 mmHg 65%
02:00 +21°C° 0 mm 2 m/s 650 mmHg 66%
03:00 +21°C° 0 mm 1 m/s 650 mmHg 67%
04:00 +21°C° 0 mm 1 m/s 650 mmHg 67%
05:00 +21°C° 0 mm 1 m/s 650 mmHg 67%
06:00 +21°C° 0 mm 1 m/s 650 mmHg 67%
07:00 +23°C° 0.1 mm 1 m/s 650 mmHg 62%
08:00 +24°C° 0.1 mm 1 m/s 650 mmHg 57%
09:00 +25°C° 0.1 mm 1 m/s 651 mmHg 52%
10:00 +27°C° 0.4 mm 2 m/s 651 mmHg 49%
11:00 +28°C° 0.4 mm 2 m/s 651 mmHg 46%
12:00 +29°C° 0.4 mm 2 m/s 651 mmHg 42%
13:00 +29°C° 0.6 mm 3 m/s 650 mmHg 42%
14:00 +29°C° 0.6 mm 3 m/s 650 mmHg 42%
15:00 +30°C° 0.6 mm 3 m/s 650 mmHg 43%
16:00 +29°C° 0.6 mm 3 m/s 650 mmHg 45%
17:00 +28°C° 0.6 mm 3 m/s 649 mmHg 48%
18:00 +27°C° 0.6 mm 3 m/s 649 mmHg 51%
19:00 +25°C° 0.8 mm 3 m/s 649 mmHg 57%
20:00 +24°C° 0.8 mm 3 m/s 650 mmHg 64%
21:00 +21°C° 0.8 mm 2 m/s 650 mmHg 70%
22:00 +21°C° 0.5 mm 2 m/s 650 mmHg 71%
23:00 +21°C° 0.5 mm 2 m/s 650 mmHg 72%

15 Agosto, Sábado

Tempo Temperatura Precipitação Vento Pressão Humidade
00:00 +21°C° 0.5 mm 1 m/s 650 mmHg 72%
01:00 +21°C° 0.1 mm 1 m/s 650 mmHg 73%
02:00 +21°C° 0.1 mm 1 m/s 650 mmHg 73%
03:00 +20°C° 0.1 mm 1 m/s 650 mmHg 74%
04:00 +20°C° 0.1 mm 1 m/s 650 mmHg 74%
05:00 +19°C° 0.1 mm 2 m/s 650 mmHg 74%
06:00 +19°C° 0.1 mm 2 m/s 650 mmHg 74%
07:00 +21°C° 0.2 mm 1 m/s 651 mmHg 69%
08:00 +22°C° 0.2 mm 1 m/s 651 mmHg 65%
09:00 +23°C° 0.2 mm 1 m/s 651 mmHg 60%
10:00 +24°C° 0.4 mm 1 m/s 651 mmHg 58%
11:00 +25°C° 0.4 mm 2 m/s 651 mmHg 57%
12:00 +25°C° 0.4 mm 2 m/s 652 mmHg 55%
13:00 +26°C° 0.5 mm 2 m/s 651 mmHg 55%
14:00 +26°C° 0.5 mm 2 m/s 651 mmHg 54%
15:00 +26°C° 0.5 mm 2 m/s 651 mmHg 54%
16:00 +25°C° 0.1 mm 2 m/s 651 mmHg 56%
17:00 +25°C° 0.1 mm 2 m/s 651 mmHg 58%
18:00 +25°C° 0.1 mm 3 m/s 651 mmHg 59%
19:00 +22°C° 0.4 mm 3 m/s 651 mmHg 65%
20:00 +21°C° 0.4 mm 2 m/s 651 mmHg 70%
21:00 +20°C° 0.4 mm 2 m/s 651 mmHg 75%
22:00 +19°C° 0.2 mm 2 m/s 651 mmHg 76%
23:00 +19°C° 0.2 mm 2 m/s 651 mmHg 76%
Mostrar mais